Time,TemperatureF,DewpointF,PressureIn,WindDirection,WindDirectionDegrees,WindSpeedMPH,WindSpeedGustMPH,Humidity,HourlyPrecipIn,Conditions,Clouds,dailyrainin,SoftwareType,DateUTC
2013-05-04 00:02:00,49.0,-99.9,30.35,East,82,11.0,14.0,-999,-99.99,,,-99.99,,2013-05-04 04:02:00,
2013-05-04 00:13:00,49.0,-99.9,30.35,ENE,75,16.0,20.0,-999,-99.99,,,-99.99,,2013-05-04 04:13:00,
2013-05-04 00:23:00,49.0,-99.9,30.35,East,88,14.0,16.0,-999,-99.99,,,-99.99,,2013-05-04 04:23:00,
2013-05-04 00:33:00,49.0,-99.9,30.34,East,92,14.0,17.0,-999,-99.99,,,-99.99,,2013-05-04 04:33:00,
2013-05-04 00:43:00,49.0,-99.9,30.34,East,84,15.0,18.0,-999,-99.99,,,-99.99,,2013-05-04 04:43:00,
2013-05-04 00:53:00,49.0,-99.9,30.33,East,84,15.0,17.0,-999,-99.99,,,-99.99,,2013-05-04 04:53:00,
2013-05-04 01:02:00,49.0,-99.9,30.33,East,79,14.0,16.0,-999,-99.99,,,-99.99,,2013-05-04 05:02:00,
2013-05-04 01:12:00,49.0,-99.9,30.32,East,96,16.0,20.0,-999,-99.99,,,-99.99,,2013-05-04 05:12:00,
2013-05-04 01:22:00,49.0,-99.9,30.32,ENE,76,19.0,22.0,-999,-99.99,,,-99.99,,2013-05-04 05:22:00,
2013-05-04 01:32:00,49.0,-99.9,30.32,East,83,17.0,20.0,-999,-99.99,,,-99.99,,2013-05-04 05:32:00,
2013-05-04 01:43:00,49.0,-99.9,30.31,East,87,17.0,20.0,-999,-99.99,,,-99.99,,2013-05-04 05:43:00,
2013-05-04 01:52:00,49.0,-99.9,30.31,East,88,17.0,21.0,-999,-99.99,,,-99.99,,2013-05-04 05:52:00,
2013-05-04 02:02:00,49.0,-99.9,30.31,ENE,66,15.0,17.0,-999,-99.99,,,-99.99,,2013-05-04 06:02:00,
2013-05-04 02:12:00,49.0,-99.9,30.30,East,79,15.0,18.0,-999,-99.99,,,-99.99,,2013-05-04 06:12:00,
2013-05-04 02:22:00,49.0,-99.9,30.30,ENE,67,15.0,19.0,-999,-99.99,,,-99.99,,2013-05-04 06:22:00,
2013-05-04 02:32:00,49.0,-99.9,30.29,East,79,13.0,16.0,-999,-99.99,,,-99.99,,2013-05-04 06:32:00,
2013-05-04 02:42:00,49.0,-99.9,30.29,ENE,71,15.0,17.0,-999,-99.99,,,-99.99,,2013-05-04 06:42:00,
2013-05-04 02:52:00,49.0,-99.9,30.29,East,89,11.0,13.0,-999,-99.99,,,-99.99,,2013-05-04 06:52:00,
2013-05-04 03:01:00,49.0,-99.9,30.28,East,83,13.0,15.0,-999,-99.99,,,-99.99,,2013-05-04 07:01:00,
2013-05-04 03:11:00,49.0,-99.9,30.28,ENE,74,13.0,14.0,-999,-99.99,,,-99.99,,2013-05-04 07:11:00,
2013-05-04 03:22:00,49.0,-99.9,30.28,East,83,12.0,14.0,-999,-99.99,,,-99.99,,2013-05-04 07:22:00,
2013-05-04 03:32:00,49.0,-99.9,30.28,ENE,75,11.0,13.0,-999,-99.99,,,-99.99,,2013-05-04 07:32:00,
2013-05-04 03:42:00,49.0,-99.9,30.27,East,85,14.0,16.0,-999,-99.99,,,-99.99,,2013-05-04 07:42:00,
2013-05-04 03:52:00,49.0,-99.9,30.28,ENE,59,15.0,17.0,-999,-99.99,,,-99.99,,2013-05-04 07:52:00,
2013-05-04 04:02:00,49.0,-99.9,30.27,ENE,65,15.0,18.0,-999,-99.99,,,-99.99,,2013-05-04 08:02:00,
2013-05-04 04:12:00,49.0,-99.9,30.27,ENE,70,14.0,16.0,-999,-99.99,,,-99.99,,2013-05-04 08:12:00,
2013-05-04 04:22:00,49.0,-99.9,30.27,ENE,67,16.0,19.0,-999,-99.99,,,-99.99,,2013-05-04 08:22:00,
2013-05-04 04:32:00,49.0,-99.9,30.27,ENE,70,15.0,18.0,-999,-99.99,,,-99.99,,2013-05-04 08:32:00,
2013-05-04 04:42:00,49.0,-99.9,30.27,ENE,67,17.0,20.0,-999,-99.99,,,-99.99,,2013-05-04 08:42:00,
2013-05-04 04:52:00,50.0,-99.9,30.27,ENE,67,15.0,17.0,-999,-99.99,,,-99.99,,2013-05-04 08:52:00,
2013-05-04 05:02:00,50.0,-99.9,30.27,ENE,70,16.0,18.0,-999,-99.99,,,-99.99,,2013-05-04 09:02:00,
2013-05-04 05:11:00,50.0,-99.9,30.27,ENE,58,15.0,18.0,-999,-99.99,,,-99.99,,2013-05-04 09:11:00,
2013-05-04 05:22:00,50.0,-99.9,30.27,ENE,65,16.0,19.0,-999,-99.99,,,-99.99,,2013-05-04 09:22:00,
2013-05-04 05:33:00,50.0,-99.9,30.27,ENE,64,16.0,19.0,-999,-99.99,,,-99.99,,2013-05-04 09:33:00,
2013-05-04 05:42:00,50.0,-99.9,30.27,ENE,71,16.0,19.0,-999,-99.99,,,-99.99,,2013-05-04 09:42:00,
2013-05-04 05:53:00,50.0,-99.9,30.27,NE,45,13.0,15.0,-999,-99.99,,,-99.99,,2013-05-04 09:53:00,
2013-05-04 06:03:00,50.0,-99.9,30.27,NE,50,14.0,16.0,-999,-99.99,,,-99.99,,2013-05-04 10:03:00,
2013-05-04 06:12:00,50.0,-99.9,30.27,NE,49,12.0,16.0,-999,-99.99,,,-99.99,,2013-05-04 10:12:00,
2013-05-04 06:23:00,49.0,-99.9,30.28,NE,50,13.0,14.0,-999,-99.99,,,-99.99,,2013-05-04 10:23:00,
2013-05-04 06:33:00,50.0,-99.9,30.28,NE,53,13.0,15.0,-999,-99.99,,,-99.99,,2013-05-04 10:33:00,
2013-05-04 06:42:00,50.0,-99.9,30.28,NE,51,13.0,16.0,-999,-99.99,,,-99.99,,2013-05-04 10:42:00,
2013-05-04 06:53:00,50.0,-99.9,30.28,NE,56,13.0,15.0,-999,-99.99,,,-99.99,,2013-05-04 10:53:00,
2013-05-04 07:02:00,50.0,-99.9,30.29,NE,56,12.0,14.0,-999,-99.99,,,-99.99,,2013-05-04 11:02:00,
2013-05-04 07:12:00,50.0,-99.9,30.29,NE,47,13.0,15.0,-999,-99.99,,,-99.99,,2013-05-04 11:12:00,
2013-05-04 07:22:00,49.0,-99.9,30.29,NE,50,13.0,16.0,-999,-99.99,,,-99.99,,2013-05-04 11:22:00,
2013-05-04 07:32:00,50.0,-99.9,30.29,NE,44,11.0,13.0,-999,-99.99,,,-99.99,,2013-05-04 11:32:00,
2013-05-04 07:46:00,50.0,-99.9,30.29,NE,55,10.0,12.0,-999,-99.99,,,-99.99,,2013-05-04 11:46:00,
2013-05-04 08:10:00,50.0,-99.9,30.29,NE,52,11.0,13.0,-999,-99.99,,,-99.99,,2013-05-04 12:10:00,
2013-05-04 08:31:00,50.0,-99.9,30.29,ENE,73,9.0,11.0,-999,-99.99,,,-99.99,,2013-05-04 12:31:00,
2013-05-04 08:42:00,51.0,-99.9,30.29,East,82,17.0,22.0,-999,-99.99,,,-99.99,,2013-05-04 12:42:00,
2013-05-04 08:52:00,51.0,-99.9,30.29,ENE,78,18.0,21.0,-999,-99.99,,,-99.99,,2013-05-04 12:52:00,
2013-05-04 09:02:00,51.0,-99.9,30.29,ENE,78,19.0,21.0,-999,-99.99,,,-99.99,,2013-05-04 13:02:00,
2013-05-04 09:11:00,52.0,-99.9,30.29,ENE,72,16.0,19.0,-999,-99.99,,,-99.99,,2013-05-04 13:11:00,
2013-05-04 09:22:00,52.0,-99.9,30.29,ENE,69,17.0,21.0,-999,-99.99,,,-99.99,,2013-05-04 13:22:00,
2013-05-04 09:32:00,53.0,-99.9,30.29,East,86,11.0,21.0,-999,-99.99,,,-99.99,,2013-05-04 13:32:00,
2013-05-04 09:42:00,52.0,-99.9,30.29,ENE,73,18.0,22.0,-999,-99.99,,,-99.99,,2013-05-04 13:42:00,
2013-05-04 09:53:00,51.0,-99.9,30.29,ENE,69,19.0,20.0,-999,-99.99,,,-99.99,,2013-05-04 13:53:00,
2013-05-04 10:02:00,51.0,-99.9,30.29,ENE,75,17.0,20.0,-999,-99.99,,,-99.99,,2013-05-04 14:02:00,
2013-05-04 10:11:00,51.0,-99.9,30.29,ENE,65,18.0,20.0,-999,-99.99,,,-99.99,,2013-05-04 14:11:00,
2013-05-04 10:22:00,51.0,-99.9,30.29,East,81,18.0,20.0,-999,-99.99,,,-99.99,,2013-05-04 14:22:00,
2013-05-04 10:32:00,52.0,-99.9,30.29,ENE,70,17.0,20.0,-999,-99.99,,,-99.99,,2013-05-04 14:32:00,
2013-05-04 10:42:00,52.0,-99.9,30.29,ENE,71,18.0,20.0,-999,-99.99,,,-99.99,,2013-05-04 14:42:00,
2013-05-04 10:52:00,52.0,-99.9,30.29,ENE,65,18.0,20.0,-999,-99.99,,,-99.99,,2013-05-04 14:52:00,
2013-05-04 11:02:00,52.0,-99.9,30.29,ENE,66,17.0,19.0,-999,-99.99,,,-99.99,,2013-05-04 15:02:00,
2013-05-04 11:12:00,52.0,-99.9,30.29,ENE,65,18.0,21.0,-999,-99.99,,,-99.99,,2013-05-04 15:12:00,
2013-05-04 11:22:00,52.0,-99.9,30.29,ENE,75,18.0,21.0,-999,-99.99,,,-99.99,,2013-05-04 15:22:00,
2013-05-04 11:33:00,52.0,-99.9,30.29,ENE,78,18.0,21.0,-999,-99.99,,,-99.99,,2013-05-04 15:33:00,
2013-05-04 11:43:00,52.0,-99.9,30.29,East,80,17.0,20.0,-999,-99.99,,,-99.99,,2013-05-04 15:43:00,
2013-05-04 11:53:00,52.0,-99.9,30.29,ENE,75,18.0,21.0,-999,-99.99,,,-99.99,,2013-05-04 15:53:00,
2013-05-04 12:03:00,52.0,-99.9,30.29,ENE,75,20.0,23.0,-999,-99.99,,,-99.99,,2013-05-04 16:03:00,
2013-05-04 12:12:00,52.0,-99.9,30.29,ENE,72,20.0,23.0,-999,-99.99,,,-99.99,,2013-05-04 16:12:00,
2013-05-04 12:22:00,52.0,-99.9,30.28,ENE,74,20.0,23.0,-999,-99.99,,,-99.99,,2013-05-04 16:22:00,
2013-05-04 12:33:00,53.0,-99.9,30.28,East,81,18.0,20.0,-999,-99.99,,,-99.99,,2013-05-04 16:33:00,
2013-05-04 12:42:00,53.0,-99.9,30.28,East,88,19.0,21.0,-999,-99.99,,,-99.99,,2013-05-04 16:42:00,
2013-05-04 12:52:00,52.0,-99.9,30.28,East,83,21.0,24.0,-999,-99.99,,,-99.99,,2013-05-04 16:52:00,
2013-05-04 13:02:00,52.0,-99.9,30.27,East,89,19.0,22.0,-999,-99.99,,,-99.99,,2013-05-04 17:02:00,
2013-05-04 13:12:00,53.0,-99.9,30.28,ENE,77,19.0,21.0,-999,-99.99,,,-99.99,,2013-05-04 17:12:00,
2013-05-04 13:23:00,53.0,-99.9,30.28,East,93,18.0,22.0,-999,-99.99,,,-99.99,,2013-05-04 17:23:00,
2013-05-04 13:33:00,53.0,-99.9,30.27,East,83,17.0,21.0,-999,-99.99,,,-99.99,,2013-05-04 17:33:00,
2013-05-04 13:42:00,53.0,-99.9,30.27,East,81,18.0,21.0,-999,-99.99,,,-99.99,,2013-05-04 17:42:00,
2013-05-04 13:52:00,53.0,-99.9,30.27,East,90,15.0,19.0,-999,-99.99,,,-99.99,,2013-05-04 17:52:00,
2013-05-04 14:01:00,53.0,-99.9,30.27,East,87,15.0,19.0,-999,-99.99,,,-99.99,,2013-05-04 18:01:00,
2013-05-04 14:12:00,52.0,-99.9,30.27,East,89,19.0,23.0,-999,-99.99,,,-99.99,,2013-05-04 18:12:00,
2013-05-04 14:22:00,53.0,-99.9,30.27,East,94,17.0,20.0,-999,-99.99,,,-99.99,,2013-05-04 18:22:00,
2013-05-04 14:32:00,53.0,-99.9,30.27,East,83,20.0,25.0,-999,-99.99,,,-99.99,,2013-05-04 18:32:00,
2013-05-04 14:42:00,52.0,-99.9,30.27,East,87,21.0,23.0,-999,-99.99,,,-99.99,,2013-05-04 18:42:00,
2013-05-04 14:52:00,52.0,-99.9,30.26,East,87,21.0,24.0,-999,-99.99,,,-99.99,,2013-05-04 18:52:00,
2013-05-04 15:02:00,52.0,-99.9,30.26,East,82,20.0,24.0,-999,-99.99,,,-99.99,,2013-05-04 19:02:00,
2013-05-04 15:11:00,52.0,-99.9,30.26,East,83,21.0,24.0,-999,-99.99,,,-99.99,,2013-05-04 19:11:00,
2013-05-04 15:22:00,52.0,-99.9,30.26,ENE,73,22.0,25.0,-999,-99.99,,,-99.99,,2013-05-04 19:22:00,
2013-05-04 15:32:00,52.0,-99.9,30.26,East,86,22.0,25.0,-999,-99.99,,,-99.99,,2013-05-04 19:32:00,
2013-05-04 15:42:00,52.0,-99.9,30.26,East,87,22.0,26.0,-999,-99.99,,,-99.99,,2013-05-04 19:42:00,
2013-05-04 15:52:00,52.0,-99.9,30.26,ENE,77,22.0,25.0,-999,-99.99,,,-99.99,,2013-05-04 19:52:00,
2013-05-04 16:02:00,52.0,-99.9,30.26,East,85,21.0,25.0,-999,-99.99,,,-99.99,,2013-05-04 20:02:00,
2013-05-04 16:11:00,52.0,-99.9,30.25,East,88,20.0,24.0,-999,-99.99,,,-99.99,,2013-05-04 20:11:00,
2013-05-04 16:22:00,52.0,-99.9,30.25,East,83,19.0,23.0,-999,-99.99,,,-99.99,,2013-05-04 20:22:00,
2013-05-04 16:32:00,52.0,-99.9,30.25,East,82,22.0,25.0,-999,-99.99,,,-99.99,,2013-05-04 20:32:00,
2013-05-04 16:42:00,52.0,-99.9,30.25,East,80,21.0,25.0,-999,-99.99,,,-99.99,,2013-05-04 20:42:00,
2013-05-04 16:52:00,52.0,-99.9,30.25,ENE,78,20.0,25.0,-999,-99.99,,,-99.99,,2013-05-04 20:52:00,
2013-05-04 17:02:00,52.0,-99.9,30.24,East,82,21.0,25.0,-999,-99.99,,,-99.99,,2013-05-04 21:02:00,
2013-05-04 17:12:00,52.0,-99.9,30.24,East,86,21.0,24.0,-999,-99.99,,,-99.99,,2013-05-04 21:12:00,
2013-05-04 17:22:00,52.0,-99.9,30.24,East,81,20.0,22.0,-999,-99.99,,,-99.99,,2013-05-04 21:22:00,
2013-05-04 17:33:00,52.0,-99.9,30.24,ENE,78,20.0,25.0,-999,-99.99,,,-99.99,,2013-05-04 21:33:00,
2013-05-04 17:43:00,52.0,-99.9,30.24,East,85,19.0,23.0,-999,-99.99,,,-99.99,,2013-05-04 21:43:00,
2013-05-04 17:53:00,51.0,-99.9,30.24,ENE,78,22.0,26.0,-999,-99.99,,,-99.99,,2013-05-04 21:53:00,
2013-05-04 18:03:00,51.0,-99.9,30.24,East,90,21.0,25.0,-999,-99.99,,,-99.99,,2013-05-04 22:03:00,
2013-05-04 18:12:00,52.0,-99.9,30.24,East,84,19.0,23.0,-999,-99.99,,,-99.99,,2013-05-04 22:12:00,
2013-05-04 18:22:00,52.0,-99.9,30.24,East,80,19.0,22.0,-999,-99.99,,,-99.99,,2013-05-04 22:22:00,
2013-05-04 18:33:00,51.0,-99.9,30.23,East,88,18.0,23.0,-999,-99.99,,,-99.99,,2013-05-04 22:33:00,
2013-05-04 18:43:00,51.0,-99.9,30.23,East,83,19.0,22.0,-999,-99.99,,,-99.99,,2013-05-04 22:43:00,
2013-05-04 18:52:00,51.0,-99.9,30.23,East,83,19.0,23.0,-999,-99.99,,,-99.99,,2013-05-04 22:52:00,
2013-05-04 19:02:00,51.0,-99.9,30.22,East,82,18.0,21.0,-999,-99.99,,,-99.99,,2013-05-04 23:02:00,
2013-05-04 19:12:00,51.0,-99.9,30.22,East,84,21.0,24.0,-999,-99.99,,,-99.99,,2013-05-04 23:12:00,
2013-05-04 19:22:00,51.0,-99.9,30.23,East,92,18.0,22.0,-999,-99.99,,,-99.99,,2013-05-04 23:22:00,
2013-05-04 19:32:00,51.0,-99.9,30.22,East,93,18.0,22.0,-999,-99.99,,,-99.99,,2013-05-04 23:32:00,
2013-05-04 19:43:00,51.0,-99.9,30.22,East,84,16.0,22.0,-999,-99.99,,,-99.99,,2013-05-04 23:43:00,
2013-05-04 19:52:00,51.0,-99.9,30.22,East,87,17.0,24.0,-999,-99.99,,,-99.99,,2013-05-04 23:52:00,
2013-05-04 20:02:00,51.0,-99.9,30.22,East,85,16.0,19.0,-999,-99.99,,,-99.99,,2013-05-05 00:02:00,
2013-05-04 20:12:00,51.0,-99.9,30.22,East,82,18.0,21.0,-999,-99.99,,,-99.99,,2013-05-05 00:12:00,
2013-05-04 20:22:00,51.0,-99.9,30.22,East,86,16.0,20.0,-999,-99.99,,,-99.99,,2013-05-05 00:22:00,
2013-05-04 20:32:00,51.0,-99.9,30.23,East,79,18.0,23.0,-999,-99.99,,,-99.99,,2013-05-05 00:32:00,
2013-05-04 20:42:00,51.0,-99.9,30.23,East,89,18.0,22.0,-999,-99.99,,,-99.99,,2013-05-05 00:42:00,
2013-05-04 20:52:00,51.0,-99.9,30.23,ESE,110,8.0,22.0,-999,-99.99,,,-99.99,,2013-05-05 00:52:00,
2013-05-04 21:01:00,50.0,-99.9,30.23,East,89,19.0,22.0,-999,-99.99,,,-99.99,,2013-05-05 01:01:00,
2013-05-04 21:11:00,50.0,-99.9,30.23,ESE,105,16.0,23.0,-999,-99.99,,,-99.99,,2013-05-05 01:11:00,
2013-05-04 21:22:00,50.0,-99.9,30.23,East,86,19.0,23.0,-999,-99.99,,,-99.99,,2013-05-05 01:22:00,
2013-05-04 21:32:00,50.0,-99.9,30.23,East,84,20.0,23.0,-999,-99.99,,,-99.99,,2013-05-05 01:32:00,
2013-05-04 21:42:00,50.0,-99.9,30.23,East,90,20.0,24.0,-999,-99.99,,,-99.99,,2013-05-05 01:42:00,
2013-05-04 21:52:00,50.0,-99.9,30.24,East,92,20.0,26.0,-999,-99.99,,,-99.99,,2013-05-05 01:52:00,
2013-05-04 22:02:00,50.0,-99.9,30.24,East,86,20.0,23.0,-999,-99.99,,,-99.99,,2013-05-05 02:02:00,
2013-05-04 22:12:00,50.0,-99.9,30.24,East,88,19.0,23.0,-999,-99.99,,,-99.99,,2013-05-05 02:12:00,
2013-05-04 22:22:00,49.0,-99.9,30.24,East,86,20.0,24.0,-999,-99.99,,,-99.99,,2013-05-05 02:22:00,
2013-05-04 22:32:00,50.0,-99.9,30.24,East,83,19.0,21.0,-999,-99.99,,,-99.99,,2013-05-05 02:32:00,
2013-05-04 22:42:00,49.0,-99.9,30.24,East,88,17.0,20.0,-999,-99.99,,,-99.99,,2013-05-05 02:42:00,
2013-05-04 22:52:00,49.0,-99.9,30.24,East,82,20.0,25.0,-999,-99.99,,,-99.99,,2013-05-05 02:52:00,
2013-05-04 23:02:00,49.0,-99.9,30.24,East,90,18.0,22.0,-999,-99.99,,,-99.99,,2013-05-05 03:02:00,
2013-05-04 23:12:00,49.0,-99.9,30.24,East,80,21.0,25.0,-999,-99.99,,,-99.99,,2013-05-05 03:12:00,
2013-05-04 23:22:00,49.0,-99.9,30.24,East,84,23.0,26.0,-999,-99.99,,,-99.99,,2013-05-05 03:22:00,
2013-05-04 23:33:00,49.0,-99.9,30.24,East,95,17.0,21.0,-999,-99.99,,,-99.99,,2013-05-05 03:33:00,
2013-05-04 23:43:00,49.0,-99.9,30.24,East,90,18.0,24.0,-999,-99.99,,,-99.99,,2013-05-05 03:43:00,
2013-05-04 23:53:00,49.0,-99.9,30.24,East,86,18.0,22.0,-999,-99.99,,,-99.99,,2013-05-05 03:53:00,